TimeEDT,TemperatureF,Dew PointF,Humidity,Sea Level PressureIn,VisibilityMPH,Wind Direction,Wind SpeedMPH,Gust SpeedMPH,PrecipitationIn,Events,Conditions,WindDirDegrees,DateUTC
12:56 AM,57.0,46.0,67,30.18,10.0,Calm,Calm,-,N/A,,Clear,0,2013-06-20 04:56:00
1:56 AM,55.0,46.9,74,30.18,10.0,Calm,Calm,-,N/A,,Clear,0,2013-06-20 05:56:00
2:56 AM,52.0,46.0,80,30.18,10.0,East,4.6,-,N/A,,Clear,80,2013-06-20 06:56:00
3:56 AM,51.1,46.0,83,30.18,10.0,East,3.5,-,N/A,,Clear,80,2013-06-20 07:56:00
4:56 AM,51.1,45.0,80,30.19,10.0,East,4.6,-,N/A,,Clear,80,2013-06-20 08:56:00
5:56 AM,50.0,45.0,83,30.19,10.0,Calm,Calm,-,N/A,,Clear,0,2013-06-20 09:56:00
6:56 AM,53.1,46.0,77,30.21,10.0,Calm,Calm,-,N/A,,Partly Cloudy,0,2013-06-20 10:56:00
7:56 AM,55.9,48.0,75,30.22,10.0,East,4.6,-,N/A,,Clear,100,2013-06-20 11:56:00
8:56 AM,62.1,50.0,65,30.24,10.0,Calm,Calm,-,N/A,,Clear,0,2013-06-20 12:56:00
9:56 AM,69.1,53.1,57,30.23,10.0,Calm,Calm,-,N/A,,Clear,0,2013-06-20 13:56:00
10:56 AM,72.0,50.0,46,30.23,10.0,NW,4.6,-,N/A,,Clear,320,2013-06-20 14:56:00
11:56 AM,73.0,50.0,44,30.23,10.0,SSW,8.1,-,N/A,,Clear,200,2013-06-20 15:56:00
12:56 PM,73.9,50.0,43,30.22,10.0,Variable,4.6,-,N/A,,Clear,0,2013-06-20 16:56:00
1:56 PM,75.0,48.0,38,30.21,10.0,Calm,Calm,-,N/A,,Clear,0,2013-06-20 17:56:00
2:56 PM,75.9,48.9,38,30.21,10.0,Calm,Calm,-,N/A,,Clear,0,2013-06-20 18:56:00
3:56 PM,78.1,48.0,35,30.22,10.0,West,6.9,-,N/A,,Clear,280,2013-06-20 19:56:00
4:56 PM,77.0,46.0,33,30.22,10.0,SW,5.8,-,N/A,,Clear,230,2013-06-20 20:56:00
5:56 PM,78.1,45.0,31,30.22,10.0,Variable,3.5,-,N/A,,Clear,0,2013-06-20 21:56:00
6:56 PM,75.9,45.0,33,30.21,10.0,West,4.6,-,N/A,,Clear,270,2013-06-20 22:56:00
7:56 PM,73.0,46.9,39,30.21,10.0,Calm,Calm,-,N/A,,Clear,0,2013-06-20 23:56:00
8:56 PM,66.9,46.0,47,30.21,10.0,Calm,Calm,-,N/A,,Clear,0,2013-06-21 00:56:00
9:56 PM,66.9,43.0,42,30.21,10.0,Calm,Calm,-,N/A,,Clear,0,2013-06-21 01:56:00
10:56 PM,64.0,44.1,48,30.22,10.0,Calm,Calm,-,N/A,,Clear,0,2013-06-21 02:56:00
11:56 PM,61.0,46.0,58,30.23,10.0,Calm,Calm,-,N/A,,Clear,0,2013-06-21 03:56:00